Time,TemperatureF,DewpointF,PressureIn,WindDirection,WindDirectionDegrees,WindSpeedMPH,WindSpeedGustMPH,Humidity,HourlyPrecipIn,Conditions,Clouds,dailyrainin,SoftwareType,DateUTC
2013-02-20 00:02:00,45.1,33.2,29.70,SSE,148,8.0,8.0,63,0.00,,,0.00,Wunderground v.1.15,2013-02-20 07:02:00,
2013-02-20 00:11:00,45.0,33.2,29.70,South,173,8.0,9.0,63,0.00,,,0.00,Wunderground v.1.15,2013-02-20 07:11:00,
2013-02-20 00:16:00,45.0,33.5,29.70,SSE,163,7.0,9.0,64,0.00,,,0.00,Wunderground v.1.15,2013-02-20 07:16:00,
2013-02-20 00:22:00,45.0,33.5,29.70,SSE,168,9.0,14.0,64,0.00,,,0.00,Wunderground v.1.15,2013-02-20 07:22:00,
2013-02-20 00:31:00,45.1,33.6,29.70,SSW,196,9.0,9.0,64,0.00,,,0.00,Wunderground v.1.15,2013-02-20 07:31:00,
2013-02-20 00:36:00,45.0,33.5,29.70,South,187,8.0,9.0,64,0.00,,,0.00,Wunderground v.1.15,2013-02-20 07:36:00,
2013-02-20 00:46:00,45.0,33.5,29.70,South,183,9.0,9.0,64,0.00,,,0.00,Wunderground v.1.15,2013-02-20 07:46:00,
2013-02-20 00:51:00,44.9,33.8,29.70,SSE,166,8.0,8.0,65,0.00,,,0.00,Wunderground v.1.15,2013-02-20 07:51:00,
2013-02-20 01:06:00,44.6,33.6,29.69,SSE,165,8.0,8.0,65,0.00,,,0.00,Wunderground v.1.15,2013-02-20 08:06:00,
2013-02-20 01:11:00,44.6,33.9,29.68,South,171,7.0,7.0,66,0.00,,,0.00,Wunderground v.1.15,2013-02-20 08:11:00,
2013-02-20 01:17:00,44.5,33.8,29.68,SE,136,7.0,9.0,66,0.00,,,0.00,Wunderground v.1.15,2013-02-20 08:17:00,
2013-02-20 01:26:00,44.6,33.9,29.67,South,175,9.0,9.0,66,0.00,,,0.00,Wunderground v.1.15,2013-02-20 08:26:00,
2013-02-20 01:31:00,44.6,33.6,29.68,South,180,9.0,9.0,65,0.00,,,0.00,Wunderground v.1.15,2013-02-20 08:31:00,
2013-02-20 01:41:00,44.6,33.6,29.67,SE,138,7.0,8.0,65,0.00,,,0.00,Wunderground v.1.15,2013-02-20 08:41:00,
2013-02-20 01:46:00,44.6,33.6,29.67,SE,128,7.0,8.0,65,0.00,,,0.00,Wunderground v.1.15,2013-02-20 08:46:00,
2013-02-20 01:52:00,44.6,33.2,29.67,SSE,156,8.0,8.0,64,0.00,,,0.00,Wunderground v.1.15,2013-02-20 08:52:00,
2013-02-20 02:01:00,44.5,33.5,29.66,South,187,9.0,9.0,65,0.00,,,0.00,Wunderground v.1.15,2013-02-20 09:01:00,
2013-02-20 02:06:00,44.5,33.5,29.66,SE,145,9.0,11.0,65,0.00,,,0.00,Wunderground v.1.15,2013-02-20 09:06:00,
2013-02-20 02:16:00,44.4,33.4,29.66,South,175,8.0,11.0,65,0.00,,,0.00,Wunderground v.1.15,2013-02-20 09:16:00,
2013-02-20 02:21:00,44.4,33.4,29.66,SSE,149,8.0,15.0,65,0.00,,,0.00,Wunderground v.1.15,2013-02-20 09:21:00,
2013-02-20 02:26:00,44.4,33.4,29.66,SE,138,10.0,15.0,65,0.00,,,0.00,Wunderground v.1.15,2013-02-20 09:26:00,
2013-02-20 02:36:00,44.1,33.1,29.65,SSW,199,8.0,10.0,65,0.00,,,0.00,Wunderground v.1.15,2013-02-20 09:36:00,
2013-02-20 02:41:00,44.0,33.4,29.65,SSE,148,7.0,10.0,66,0.00,,,0.00,Wunderground v.1.15,2013-02-20 09:41:00,
2013-02-20 02:51:00,43.8,33.2,29.64,SSW,192,8.0,8.0,66,0.00,,,0.00,Wunderground v.1.15,2013-02-20 09:51:00,
2013-02-20 02:56:00,43.8,33.2,29.64,South,176,7.0,13.0,66,0.00,,,0.00,Wunderground v.1.15,2013-02-20 09:56:00,
2013-02-20 03:01:00,43.7,33.1,29.64,ESE,123,7.0,8.0,66,0.00,,,0.00,Wunderground v.1.15,2013-02-20 10:01:00,
2013-02-20 03:07:00,43.6,33.0,29.64,South,182,8.0,8.0,66,0.00,,,0.00,Wunderground v.1.15,2013-02-20 10:07:00,
2013-02-20 03:16:00,43.5,32.9,29.64,SSE,160,6.0,7.0,66,0.00,,,0.00,Wunderground v.1.15,2013-02-20 10:16:00,
2013-02-20 03:21:00,43.4,32.8,29.63,SSW,197,6.0,7.0,66,0.00,,,0.00,Wunderground v.1.15,2013-02-20 10:21:00,
2013-02-20 03:31:00,43.4,32.8,29.63,South,190,7.0,7.0,66,0.00,,,0.00,Wunderground v.1.15,2013-02-20 10:31:00,
2013-02-20 03:36:00,43.4,32.8,29.63,SSE,150,8.0,13.0,66,0.00,,,0.00,Wunderground v.1.15,2013-02-20 10:36:00,
2013-02-20 03:41:00,43.4,32.8,29.62,South,171,9.0,10.0,66,0.00,,,0.00,Wunderground v.1.15,2013-02-20 10:41:00,
2013-02-20 03:51:00,43.2,32.6,29.62,SSE,148,7.0,12.0,66,0.00,,,0.00,Wunderground v.1.15,2013-02-20 10:51:00,
2013-02-20 03:56:00,43.1,32.5,29.61,South,183,8.0,12.0,66,0.00,,,0.00,Wunderground v.1.15,2013-02-20 10:56:00,
2013-02-20 04:06:00,42.9,32.7,29.61,SE,145,7.0,9.0,67,0.00,,,0.00,Wunderground v.1.15,2013-02-20 11:06:00,
2013-02-20 04:11:00,42.9,32.7,29.61,SSE,154,8.0,9.0,67,0.00,,,0.00,Wunderground v.1.15,2013-02-20 11:11:00,
2013-02-20 04:16:00,42.9,32.7,29.60,South,170,8.0,9.0,67,0.00,,,0.00,Wunderground v.1.15,2013-02-20 11:16:00,
2013-02-20 04:22:00,42.8,32.6,29.60,SSE,155,8.0,8.0,67,0.00,,,0.00,Wunderground v.1.15,2013-02-20 11:22:00,
2013-02-20 04:31:00,42.7,32.5,29.59,SSW,196,6.0,6.0,67,0.00,,,0.00,Wunderground v.1.15,2013-02-20 11:31:00,
2013-02-20 04:37:00,42.7,32.9,29.59,South,174,7.0,9.0,68,0.00,,,0.00,Wunderground v.1.15,2013-02-20 11:37:00,
2013-02-20 04:46:00,42.6,32.4,29.59,SSE,152,6.0,7.0,67,0.00,,,0.00,Wunderground v.1.15,2013-02-20 11:46:00,
2013-02-20 04:52:00,42.6,32.4,29.59,SE,141,6.0,7.0,67,0.00,,,0.00,Wunderground v.1.15,2013-02-20 11:52:00,
2013-02-20 05:01:00,42.6,32.4,29.59,SSE,163,6.0,7.0,67,0.00,,,0.00,Wunderground v.1.15,2013-02-20 12:01:00,
2013-02-20 05:06:00,42.6,32.4,29.59,SSW,194,6.0,7.0,67,0.00,,,0.00,Wunderground v.1.15,2013-02-20 12:06:00,
2013-02-20 05:12:00,42.6,32.0,29.58,South,175,6.0,6.0,66,0.00,,,0.00,Wunderground v.1.15,2013-02-20 12:12:00,
2013-02-20 05:21:00,42.6,32.0,29.58,South,175,4.0,4.0,66,0.00,,,0.00,Wunderground v.1.15,2013-02-20 12:21:00,
2013-02-20 05:26:00,42.6,32.0,29.58,South,178,4.0,6.0,66,0.00,,,0.00,Wunderground v.1.15,2013-02-20 12:26:00,
2013-02-20 05:36:00,42.5,31.9,29.58,SSW,203,3.0,4.0,66,0.00,,,0.00,Wunderground v.1.15,2013-02-20 12:36:00,
2013-02-20 05:41:00,42.1,31.6,29.58,South,187,2.0,4.0,66,0.00,,,0.00,Wunderground v.1.15,2013-02-20 12:41:00,
2013-02-20 05:46:00,42.0,31.8,29.58,South,190,2.0,4.0,67,0.00,,,0.00,Wunderground v.1.15,2013-02-20 12:46:00,
2013-02-20 05:56:00,42.0,31.8,29.57,South,183,3.0,7.0,67,0.00,,,0.00,Wunderground v.1.15,2013-02-20 12:56:00,
2013-02-20 06:01:00,42.0,32.2,29.57,SSW,213,3.0,4.0,68,0.00,,,0.00,Wunderground v.1.15,2013-02-20 13:01:00,
2013-02-20 06:06:00,42.1,32.3,29.57,SSW,194,4.0,6.0,68,0.00,,,0.00,Wunderground v.1.15,2013-02-20 13:06:00,
2013-02-20 06:17:00,42.3,32.1,29.57,South,184,4.0,4.0,67,0.00,,,0.00,Wunderground v.1.15,2013-02-20 13:17:00,
2013-02-20 06:26:00,42.2,32.0,29.56,SSW,203,3.0,8.0,67,0.00,,,0.00,Wunderground v.1.15,2013-02-20 13:26:00,
2013-02-20 06:31:00,42.3,32.1,29.56,South,173,4.0,4.0,67,0.00,,,0.00,Wunderground v.1.15,2013-02-20 13:31:00,
2013-02-20 06:37:00,42.5,31.9,29.56,SSW,196,5.0,5.0,66,0.00,,,0.00,Wunderground v.1.15,2013-02-20 13:37:00,
2013-02-20 06:46:00,42.4,31.8,29.56,SSW,207,3.0,5.0,66,0.00,,,0.00,Wunderground v.1.15,2013-02-20 13:46:00,
2013-02-20 06:51:00,42.2,31.6,29.56,SSW,213,4.0,5.0,66,0.00,,,0.00,Wunderground v.1.15,2013-02-20 13:51:00,
2013-02-20 06:56:00,41.8,31.6,29.56,SSW,203,4.0,5.0,67,0.00,,,0.00,Wunderground v.1.15,2013-02-20 13:56:00,
2013-02-20 07:06:00,41.2,31.8,29.56,SSW,211,4.0,4.0,69,0.00,,,0.00,Wunderground v.1.15,2013-02-20 14:06:00,
2013-02-20 07:11:00,41.1,31.7,29.56,SSW,204,4.0,4.0,69,0.00,,,0.00,Wunderground v.1.15,2013-02-20 14:11:00,
2013-02-20 07:16:00,41.2,31.8,29.56,SSW,199,4.0,4.0,69,0.00,,,0.00,Wunderground v.1.15,2013-02-20 14:16:00,
2013-02-20 07:21:00,41.3,31.9,29.56,SW,215,4.0,5.0,69,0.00,,,0.00,Wunderground v.1.15,2013-02-20 14:21:00,
2013-02-20 07:31:00,41.4,32.0,29.56,SSW,213,4.0,7.0,69,0.00,,,0.00,Wunderground v.1.15,2013-02-20 14:31:00,
2013-02-20 07:36:00,41.4,32.0,29.56,SSW,200,4.0,7.0,69,0.00,,,0.00,Wunderground v.1.15,2013-02-20 14:36:00,
2013-02-20 07:41:00,41.4,32.0,29.55,SSW,200,0.0,0.0,69,0.00,,,0.00,Wunderground v.1.15,2013-02-20 14:41:00,
2013-02-20 07:47:00,-999.9,-99.9,29.55,North,32767,-999.0,0.0,255,-99.99,,,0.00,Wunderground v.1.15,2013-02-20 14:47:00,
2013-02-20 07:56:00,-999.9,-99.9,29.54,North,32767,-999.0,0.0,255,-99.99,,,0.00,Wunderground v.1.15,2013-02-20 14:56:00,
2013-02-20 08:06:00,-999.9,-99.9,29.53,North,32767,-999.0,0.0,255,-99.99,,,0.00,Wunderground v.1.15,2013-02-20 15:06:00,
2013-02-20 08:16:00,-999.9,-99.9,29.53,North,32767,-999.0,0.0,255,-99.99,,,0.00,Wunderground v.1.15,2013-02-20 15:16:00,
2013-02-20 08:21:00,-999.9,-99.9,29.53,North,32767,-999.0,0.0,255,-99.99,,,0.00,Wunderground v.1.15,2013-02-20 15:21:00,
2013-02-20 08:26:00,-999.9,-99.9,29.52,North,32767,-999.0,0.0,255,-99.99,,,0.00,Wunderground v.1.15,2013-02-20 15:26:00,
2013-02-20 08:31:00,-999.9,-99.9,29.52,North,32767,-999.0,0.0,255,-99.99,,,0.00,Wunderground v.1.15,2013-02-20 15:31:00,
2013-02-20 08:36:00,-999.9,-99.9,29.51,North,32767,-999.0,0.0,255,-99.99,,,0.00,Wunderground v.1.15,2013-02-20 15:36:00,
2013-02-20 08:41:00,-999.9,-99.9,29.51,North,32767,-999.0,0.0,255,-99.99,,,0.00,Wunderground v.1.15,2013-02-20 15:41:00,
2013-02-20 08:46:00,-999.9,-99.9,29.51,North,32767,-999.0,0.0,255,-99.99,,,0.00,Wunderground v.1.15,2013-02-20 15:46:00,
2013-02-20 08:52:00,-999.9,-99.9,29.51,North,32767,-999.0,0.0,255,-99.99,,,0.00,Wunderground v.1.15,2013-02-20 15:52:00,
2013-02-20 09:01:00,-999.9,-99.9,29.50,North,32767,-999.0,0.0,255,-99.99,,,0.00,Wunderground v.1.15,2013-02-20 16:01:00,
2013-02-20 09:06:00,-999.9,-99.9,29.49,North,32767,-999.0,0.0,255,-99.99,,,0.00,Wunderground v.1.15,2013-02-20 16:06:00,
2013-02-20 09:11:00,-999.9,-99.9,29.49,North,32767,-999.0,0.0,255,-99.99,,,0.00,Wunderground v.1.15,2013-02-20 16:11:00,
2013-02-20 09:21:00,-999.9,-99.9,29.48,North,32767,-999.0,0.0,255,-99.99,,,0.00,Wunderground v.1.15,2013-02-20 16:21:00,
2013-02-20 09:26:00,-999.9,-99.9,29.48,North,32767,-999.0,0.0,255,-99.99,,,0.00,Wunderground v.1.15,2013-02-20 16:26:00,
2013-02-20 09:31:00,-999.9,-99.9,29.48,North,32767,-999.0,0.0,255,-99.99,,,0.00,Wunderground v.1.15,2013-02-20 16:31:00,
2013-02-20 09:41:00,-999.9,-99.9,29.47,North,32767,-999.0,0.0,255,-99.99,,,0.00,Wunderground v.1.15,2013-02-20 16:41:00,
2013-02-20 09:46:00,-999.9,-99.9,29.47,North,32767,-999.0,0.0,255,-99.99,,,0.00,Wunderground v.1.15,2013-02-20 16:46:00,
2013-02-20 09:56:00,-999.9,-99.9,29.47,North,32767,-999.0,0.0,255,-99.99,,,0.00,Wunderground v.1.15,2013-02-20 16:56:00,
2013-02-20 10:01:00,-999.9,-99.9,29.46,North,32767,-999.0,0.0,255,-99.99,,,0.00,Wunderground v.1.15,2013-02-20 17:01:00,
2013-02-20 10:06:00,-999.9,-99.9,29.46,North,32767,-999.0,0.0,255,-99.99,,,0.00,Wunderground v.1.15,2013-02-20 17:06:00,
2013-02-20 10:16:00,-999.9,-99.9,29.45,North,32767,-999.0,0.0,255,-99.99,,,0.00,Wunderground v.1.15,2013-02-20 17:16:00,
2013-02-20 10:26:00,-999.9,-99.9,29.45,North,32767,-999.0,0.0,255,-99.99,,,0.00,Wunderground v.1.15,2013-02-20 17:26:00,
2013-02-20 10:31:00,-999.9,-99.9,29.44,North,32767,-999.0,0.0,255,-99.99,,,0.00,Wunderground v.1.15,2013-02-20 17:31:00,
2013-02-20 10:37:00,-999.9,-99.9,29.44,North,32767,-999.0,0.0,255,-99.99,,,0.00,Wunderground v.1.15,2013-02-20 17:37:00,
2013-02-20 10:46:00,-999.9,-99.9,29.43,North,32767,-999.0,0.0,255,-99.99,,,0.00,Wunderground v.1.15,2013-02-20 17:46:00,
2013-02-20 10:51:00,-999.9,-99.9,29.43,North,32767,-999.0,0.0,255,-99.99,,,0.00,Wunderground v.1.15,2013-02-20 17:51:00,
2013-02-20 10:57:00,-999.9,-99.9,29.43,North,32767,-999.0,0.0,255,-99.99,,,0.00,Wunderground v.1.15,2013-02-20 17:57:00,
2013-02-20 11:06:00,-999.9,-99.9,29.42,North,32767,-999.0,0.0,255,-99.99,,,0.00,Wunderground v.1.15,2013-02-20 18:06:00,
2013-02-20 11:16:00,-999.9,-99.9,29.41,North,32767,-999.0,0.0,255,-99.99,,,0.00,Wunderground v.1.15,2013-02-20 18:16:00,
2013-02-20 11:21:00,-999.9,-99.9,29.41,North,32767,-999.0,0.0,255,-99.99,,,0.00,Wunderground v.1.15,2013-02-20 18:21:00,
2013-02-20 11:26:00,-999.9,-99.9,29.41,North,32767,-999.0,0.0,255,-99.99,,,0.00,Wunderground v.1.15,2013-02-20 18:26:00,
2013-02-20 11:31:00,-999.9,-99.9,29.40,North,32767,-999.0,0.0,255,-99.99,,,0.00,Wunderground v.1.15,2013-02-20 18:31:00,
2013-02-20 11:41:00,-999.9,-99.9,29.40,North,32767,-999.0,0.0,255,-99.99,,,0.00,Wunderground v.1.15,2013-02-20 18:41:00,
2013-02-20 11:51:00,-999.9,-99.9,29.40,North,32767,-999.0,0.0,255,-99.99,,,0.00,Wunderground v.1.15,2013-02-20 18:51:00,
2013-02-20 11:56:00,-999.9,-99.9,29.39,North,32767,-999.0,0.0,255,-99.99,,,0.00,Wunderground v.1.15,2013-02-20 18:56:00,
2013-02-20 12:01:00,-999.9,-99.9,29.39,North,32767,-999.0,0.0,255,-99.99,,,0.00,Wunderground v.1.15,2013-02-20 19:01:00,
2013-02-20 12:06:00,-999.9,-99.9,29.39,North,32767,-999.0,0.0,255,-99.99,,,0.00,Wunderground v.1.15,2013-02-20 19:06:00,
2013-02-20 12:12:00,-999.9,-99.9,29.40,North,32767,-999.0,0.0,255,-99.99,,,0.00,Wunderground v.1.15,2013-02-20 19:12:00,
2013-02-20 12:21:00,-999.9,-99.9,29.40,North,32767,-999.0,0.0,255,-99.99,,,0.00,Wunderground v.1.15,2013-02-20 19:21:00,
2013-02-20 12:26:00,-999.9,-99.9,29.40,North,32767,-999.0,0.0,255,-99.99,,,0.00,Wunderground v.1.15,2013-02-20 19:26:00,
2013-02-20 12:32:00,-999.9,-99.9,29.40,North,32767,-999.0,0.0,255,-99.99,,,0.00,Wunderground v.1.15,2013-02-20 19:32:00,
2013-02-20 12:41:00,-999.9,-99.9,29.39,North,32767,-999.0,0.0,255,-99.99,,,0.00,Wunderground v.1.15,2013-02-20 19:41:00,
2013-02-20 12:46:00,-999.9,-99.9,29.39,North,32767,-999.0,0.0,255,-99.99,,,0.00,Wunderground v.1.15,2013-02-20 19:46:00,
2013-02-20 12:51:00,-999.9,-99.9,29.39,North,32767,-999.0,0.0,255,-99.99,,,0.00,Wunderground v.1.15,2013-02-20 19:51:00,
2013-02-20 12:57:00,-999.9,-99.9,29.38,North,32767,-999.0,0.0,255,-99.99,,,0.00,Wunderground v.1.15,2013-02-20 19:57:00,
2013-02-20 13:06:00,-999.9,-99.9,29.38,North,32767,-999.0,0.0,255,-99.99,,,0.00,Wunderground v.1.15,2013-02-20 20:06:00,
2013-02-20 13:16:00,-999.9,-99.9,29.37,North,32767,-999.0,0.0,255,-99.99,,,0.00,Wunderground v.1.15,2013-02-20 20:16:00,
2013-02-20 13:22:00,-999.9,-99.9,29.37,North,32767,-999.0,0.0,255,-99.99,,,0.00,Wunderground v.1.15,2013-02-20 20:22:00,
2013-02-20 13:31:00,-999.9,-99.9,29.35,North,32767,-999.0,0.0,255,-99.99,,,0.00,Wunderground v.1.15,2013-02-20 20:31:00,
2013-02-20 13:36:00,-999.9,-99.9,29.35,North,32767,-999.0,0.0,255,-99.99,,,0.00,Wunderground v.1.15,2013-02-20 20:36:00,
2013-02-20 13:41:00,47.8,20.1,29.34,SSE,163,14.0,14.0,33,0.00,,,0.00,Wunderground v.1.15,2013-02-20 20:41:00,
2013-02-20 13:46:00,48.3,19.0,29.35,WSW,240,13.0,14.0,31,0.00,,,0.00,Wunderground v.1.15,2013-02-20 20:46:00,
2013-02-20 13:56:00,48.6,16.9,29.35,SW,234,13.0,14.0,28,0.00,,,0.00,Wunderground v.1.15,2013-02-20 20:56:00,
2013-02-20 14:01:00,48.0,20.2,29.36,WSW,246,12.0,14.0,33,0.00,,,0.00,Wunderground v.1.15,2013-02-20 21:01:00,
2013-02-20 14:11:00,46.1,19.2,29.35,WSW,238,10.0,11.0,34,0.00,,,0.00,Wunderground v.1.15,2013-02-20 21:11:00,
2013-02-20 14:16:00,45.7,21.5,29.36,WSW,253,9.0,11.0,38,0.00,,,0.00,Wunderground v.1.15,2013-02-20 21:16:00,
2013-02-20 14:26:00,44.4,21.6,29.37,NW,306,11.0,20.0,40,0.00,,,0.00,Wunderground v.1.15,2013-02-20 21:26:00,
2013-02-20 14:36:00,44.5,22.2,29.38,WNW,287,11.0,11.0,41,0.00,,,0.00,Wunderground v.1.15,2013-02-20 21:36:00,
2013-02-20 14:42:00,45.0,22.1,29.38,West,269,9.0,9.0,40,0.00,,,0.00,Wunderground v.1.15,2013-02-20 21:42:00,
2013-02-20 14:51:00,45.6,21.4,29.39,West,279,10.0,12.0,38,0.00,,,0.00,Wunderground v.1.15,2013-02-20 21:51:00,
2013-02-20 15:01:00,46.4,20.9,29.38,NW,317,7.0,7.0,36,0.00,,,0.00,Wunderground v.1.15,2013-02-20 22:01:00,
2013-02-20 15:06:00,46.5,18.2,29.39,SW,225,9.0,20.0,32,0.00,,,0.00,Wunderground v.1.15,2013-02-20 22:06:00,
2013-02-20 15:16:00,46.4,18.1,29.39,WSW,237,14.0,18.0,32,0.00,,,0.00,Wunderground v.1.15,2013-02-20 22:16:00,
2013-02-20 15:26:00,47.0,18.6,29.39,SW,227,9.0,10.0,32,0.00,,,0.00,Wunderground v.1.15,2013-02-20 22:26:00,
2013-02-20 15:36:00,47.5,17.6,29.39,SW,236,11.0,14.0,30,0.00,,,0.00,Wunderground v.1.15,2013-02-20 22:36:00,
2013-02-20 15:46:00,47.7,19.2,29.40,West,273,11.0,12.0,32,0.00,,,0.00,Wunderground v.1.15,2013-02-20 22:46:00,
2013-02-20 15:51:00,47.2,18.1,29.40,West,280,11.0,11.0,31,0.00,,,0.00,Wunderground v.1.15,2013-02-20 22:51:00,
2013-02-20 15:56:00,47.1,17.2,29.40,WSW,241,10.0,11.0,30,0.00,,,0.00,Wunderground v.1.15,2013-02-20 22:56:00,
2013-02-20 16:07:00,43.8,25.4,29.42,NNW,333,12.0,17.0,48,0.00,,,0.00,Wunderground v.1.15,2013-02-20 23:07:00,
2013-02-20 16:16:00,41.3,26.8,29.43,NW,322,15.0,16.0,56,0.00,,,0.00,Wunderground v.1.15,2013-02-20 23:16:00,
2013-02-20 16:26:00,40.4,27.6,29.44,NNW,334,15.0,15.0,60,0.00,,,0.00,Wunderground v.1.15,2013-02-20 23:26:00,
2013-02-20 16:36:00,39.7,28.1,29.45,NNW,334,11.0,14.0,63,0.00,,,0.00,Wunderground v.1.15,2013-02-20 23:36:00,
2013-02-20 16:41:00,39.7,28.1,29.45,North,349,10.0,10.0,63,0.00,,,0.00,Wunderground v.1.15,2013-02-20 23:41:00,
2013-02-20 16:51:00,39.5,28.3,29.46,North,5,8.0,10.0,64,0.00,,,0.00,Wunderground v.1.15,2013-02-20 23:51:00,
2013-02-20 17:02:00,39.3,28.1,29.46,NE,37,8.0,8.0,64,0.00,,,0.00,Wunderground v.1.15,2013-02-21 00:02:00,
2013-02-20 17:11:00,39.3,28.1,29.46,NNE,17,7.0,7.0,64,0.00,,,0.00,Wunderground v.1.15,2013-02-21 00:11:00,
2013-02-20 17:16:00,39.4,28.2,29.47,NNE,28,6.0,7.0,64,0.00,,,0.00,Wunderground v.1.15,2013-02-21 00:16:00,
2013-02-20 17:22:00,39.1,27.9,29.47,North,11,6.0,6.0,64,0.00,,,0.00,Wunderground v.1.15,2013-02-21 00:22:00,
2013-02-20 17:31:00,39.0,27.5,29.47,NNE,17,4.0,4.0,63,0.00,,,0.00,Wunderground v.1.15,2013-02-21 00:31:00,
2013-02-20 17:37:00,39.0,27.5,29.47,NE,46,5.0,6.0,63,0.00,,,0.00,Wunderground v.1.15,2013-02-21 00:37:00,
2013-02-20 17:46:00,39.0,27.5,29.47,NE,45,4.0,7.0,63,0.00,,,0.00,Wunderground v.1.15,2013-02-21 00:46:00,
2013-02-20 17:51:00,39.1,27.6,29.47,ENE,57,4.0,4.0,63,0.00,,,0.00,Wunderground v.1.15,2013-02-21 00:51:00,
2013-02-20 18:01:00,38.9,27.4,29.47,ENE,59,5.0,5.0,63,0.00,,,0.00,Wunderground v.1.15,2013-02-21 01:01:00,
2013-02-20 18:06:00,39.0,27.1,29.47,NNE,30,5.0,5.0,62,0.00,,,0.00,Wunderground v.1.15,2013-02-21 01:06:00,
2013-02-20 18:16:00,39.1,26.8,29.48,NE,42,4.0,4.0,61,0.00,,,0.00,Wunderground v.1.15,2013-02-21 01:16:00,
2013-02-20 18:21:00,39.0,26.3,29.48,North,360,4.0,6.0,60,0.00,,,0.00,Wunderground v.1.15,2013-02-21 01:21:00,
2013-02-20 18:26:00,38.9,25.8,29.49,North,350,4.0,6.0,59,0.00,,,0.00,Wunderground v.1.15,2013-02-21 01:26:00,
2013-02-20 18:36:00,38.6,25.9,29.49,NNW,342,4.0,5.0,60,0.00,,,0.00,Wunderground v.1.15,2013-02-21 01:36:00,
2013-02-20 18:41:00,38.4,26.5,29.50,NNW,327,4.0,6.0,62,0.00,,,0.00,Wunderground v.1.15,2013-02-21 01:41:00,
2013-02-20 18:51:00,37.6,26.9,29.51,NNW,336,3.0,3.0,65,0.00,,,0.00,Wunderground v.1.15,2013-02-21 01:51:00,
2013-02-20 18:56:00,37.4,27.1,29.51,NW,326,2.0,3.0,66,0.00,,,0.00,Wunderground v.1.15,2013-02-21 01:56:00,
2013-02-20 19:06:00,37.5,27.2,29.51,North,5,6.0,10.0,66,0.00,,,0.00,Wunderground v.1.15,2013-02-21 02:06:00,
2013-02-20 19:11:00,37.5,27.5,29.51,North,355,7.0,7.0,67,0.00,,,0.00,Wunderground v.1.15,2013-02-21 02:11:00,
2013-02-20 19:21:00,37.4,27.8,29.52,North,360,5.0,5.0,68,0.00,,,0.00,Wunderground v.1.15,2013-02-21 02:21:00,
2013-02-20 19:26:00,37.3,27.7,29.52,North,9,5.0,5.0,68,0.00,,,0.00,Wunderground v.1.15,2013-02-21 02:26:00,
2013-02-20 19:31:00,37.2,28.0,29.52,North,5,4.0,4.0,69,0.00,,,0.00,Wunderground v.1.15,2013-02-21 02:31:00,
2013-02-20 19:41:00,37.2,28.3,29.52,North,355,4.0,6.0,70,0.00,,,0.00,Wunderground v.1.15,2013-02-21 02:41:00,
2013-02-20 19:46:00,37.1,28.2,29.52,North,10,5.0,6.0,70,0.00,,,0.00,Wunderground v.1.15,2013-02-21 02:46:00,
2013-02-20 19:51:00,37.1,28.6,29.52,NNW,346,4.0,4.0,71,0.00,,,0.00,Wunderground v.1.15,2013-02-21 02:51:00,
2013-02-20 20:01:00,37.0,28.5,29.53,NNE,30,3.0,3.0,71,0.00,,,0.00,Wunderground v.1.15,2013-02-21 03:01:00,
2013-02-20 20:06:00,37.0,28.8,29.53,NNE,30,3.0,3.0,72,0.00,,,0.00,Wunderground v.1.15,2013-02-21 03:06:00,
2013-02-20 20:16:00,37.1,28.9,29.52,ENE,57,3.0,3.0,72,0.00,,,0.00,Wunderground v.1.15,2013-02-21 03:16:00,
2013-02-20 20:21:00,37.1,28.6,29.52,NE,55,2.0,5.0,71,0.00,,,0.00,Wunderground v.1.15,2013-02-21 03:21:00,
2013-02-20 20:27:00,37.1,28.6,29.52,NE,55,2.0,5.0,71,0.00,,,0.00,Wunderground v.1.15,2013-02-21 03:27:00,
2013-02-20 20:36:00,37.0,28.8,29.52,NE,40,3.0,5.0,72,0.00,,,0.00,Wunderground v.1.15,2013-02-21 03:36:00,
2013-02-20 20:41:00,37.1,28.9,29.51,NE,49,4.0,4.0,72,0.00,,,0.00,Wunderground v.1.15,2013-02-21 03:41:00,
2013-02-20 20:51:00,37.1,28.6,29.51,NNW,346,3.0,6.0,71,0.00,,,0.00,Wunderground v.1.15,2013-02-21 03:51:00,
2013-02-20 20:56:00,36.7,28.2,29.51,North,355,4.0,6.0,71,0.00,,,0.00,Wunderground v.1.15,2013-02-21 03:56:00,
2013-02-20 21:01:00,36.6,28.4,29.50,NNW,340,4.0,5.0,72,0.00,,,0.00,Wunderground v.1.15,2013-02-21 04:01:00,
2013-02-20 21:11:00,36.1,28.3,29.50,NNW,343,5.0,5.0,73,0.00,,,0.00,Wunderground v.1.15,2013-02-21 04:11:00,
2013-02-20 21:16:00,35.9,28.1,29.50,NNW,336,4.0,5.0,73,0.00,,,0.00,Wunderground v.1.15,2013-02-21 04:16:00,
2013-02-20 21:26:00,35.6,28.1,29.50,North,355,3.0,4.0,74,0.00,,,0.00,Wunderground v.1.15,2013-02-21 04:26:00,
2013-02-20 21:31:00,35.5,28.0,29.51,North,355,3.0,3.0,74,0.00,,,0.00,Wunderground v.1.15,2013-02-21 04:31:00,
2013-02-20 21:37:00,35.4,28.3,29.50,North,355,3.0,4.0,75,0.00,,,0.00,Wunderground v.1.15,2013-02-21 04:37:00,
2013-02-20 21:46:00,35.3,28.2,29.50,North,5,4.0,5.0,75,0.00,,,0.00,Wunderground v.1.15,2013-02-21 04:46:00,
2013-02-20 21:52:00,35.3,28.2,29.50,North,5,3.0,3.0,75,0.00,,,0.00,Wunderground v.1.15,2013-02-21 04:52:00,
2013-02-20 22:01:00,35.3,28.2,29.50,North,360,1.0,1.0,75,0.00,,,0.00,Wunderground v.1.15,2013-02-21 05:01:00,
2013-02-20 22:07:00,35.3,27.8,29.50,North,360,1.0,1.0,74,0.00,,,0.00,Wunderground v.1.15,2013-02-21 05:07:00,
2013-02-20 22:11:00,35.2,27.7,29.50,North,360,1.0,1.0,74,0.00,,,0.00,Wunderground v.1.15,2013-02-21 05:11:00,
2013-02-20 22:16:00,35.2,27.7,29.50,North,5,0.0,1.0,74,0.00,,,0.00,Wunderground v.1.15,2013-02-21 05:16:00,
2013-02-20 22:21:00,35.1,27.6,29.49,North,5,0.0,0.0,74,0.00,,,0.00,Wunderground v.1.15,2013-02-21 05:21:00,
2013-02-20 22:31:00,35.1,27.6,29.49,North,360,2.0,2.0,74,0.00,,,0.00,Wunderground v.1.15,2013-02-21 05:31:00,
2013-02-20 22:36:00,-999.9,-99.9,29.49,North,32767,-999.0,2.0,255,-99.99,,,0.00,Wunderground v.1.15,2013-02-21 05:36:00,
2013-02-20 22:41:00,-999.9,-99.9,29.48,North,32767,-999.0,0.0,255,-99.99,,,0.00,Wunderground v.1.15,2013-02-21 05:41:00,
2013-02-20 22:51:00,-999.9,-99.9,29.47,North,32767,-999.0,0.0,255,-99.99,,,0.00,Wunderground v.1.15,2013-02-21 05:51:00,
2013-02-20 23:01:00,-999.9,-99.9,29.46,North,32767,-999.0,0.0,255,-99.99,,,0.00,Wunderground v.1.15,2013-02-21 06:01:00,
2013-02-20 23:06:00,-999.9,-99.9,29.46,North,32767,-999.0,0.0,255,-99.99,,,0.00,Wunderground v.1.15,2013-02-21 06:06:00,
2013-02-20 23:12:00,-999.9,-99.9,29.46,North,32767,-999.0,0.0,255,-99.99,,,0.00,Wunderground v.1.15,2013-02-21 06:12:00,
2013-02-20 23:21:00,-999.9,-99.9,29.46,North,32767,-999.0,0.0,255,-99.99,,,0.00,Wunderground v.1.15,2013-02-21 06:21:00,
2013-02-20 23:26:00,-999.9,-99.9,29.46,North,32767,-999.0,0.0,255,-99.99,,,0.00,Wunderground v.1.15,2013-02-21 06:26:00,
2013-02-20 23:31:00,-999.9,-99.9,29.47,North,32767,-999.0,0.0,255,-99.99,,,0.00,Wunderground v.1.15,2013-02-21 06:31:00,
2013-02-20 23:41:00,-999.9,-99.9,29.48,North,32767,-999.0,0.0,255,-99.99,,,0.00,Wunderground v.1.15,2013-02-21 06:41:00,
2013-02-20 23:46:00,-999.9,-99.9,29.48,North,32767,-999.0,0.0,255,-99.99,,,0.00,Wunderground v.1.15,2013-02-21 06:46:00,
2013-02-20 23:56:00,-999.9,-99.9,29.48,North,32767,-999.0,0.0,255,-99.99,,,0.00,Wunderground v.1.15,2013-02-21 06:56:00,